#timestamp,LO_Frequency,Hit,StdDev 
1681552815.2,286046999.5,N
1681552835.0,286047000.6,N
1681552836.0,286047000.6,N
1681552855.8,286046997.0,N
1681552875.6,286046997.0,N
1681552925.5,286047002.1,E
1681552935.4,286047002.4,N
1681552955.3,286047001.1,P
1681552975.1,286046999.8,N
1681552976.0,286046999.8,N
1681552995.8,286046999.5,N
1681553015.7,286046999.8,N
1681553035.5,286047003.6,Y
1681553055.3,286047002.2,P
1681553075.2,286047000.1,N
1681553095.0,286047003.9,P
1681553095.9,286047003.9,N
1681553115.8,286047001.9,N
1681553135.6,286047004.0,N
1681553155.4,286047004.1,N
1681553175.3,286047003.8,N
1681553195.1,286047002.7,N
1681553215.8,286047002.2,N
1681553235.7,286047001.4,N
1681553255.5,286047004.2,Y
1681553275.4,286046998.6,P
1681553295.2,286047002.3,N
1681553315.0,286046999.2,N
1681553315.9,286046999.2,N
1681553335.8,286046999.6,N
1681553355.6,286046998.8,N
1681553375.4,286046996.5,N
1681553395.3,286046999.6,N
1681553415.1,286046993.5,Y
1681553435.9,286046995.3,P
1681553455.7,286046999.0,N
1681553475.5,286046997.5,N
1681553495.4,286046996.8,N
1681553515.2,286046997.1,N
1681553535.0,286046996.6,N
1681553535.9,286046996.6,N
1681553555.8,286046998.7,N
1681553575.6,286046999.3,N
1681553595.5,286046995.1,Y
1681553615.3,286047003.7,P
1681553635.1,286047000.3,N
1681553655.9,286047000.5,N
1681553675.7,286047000.4,N
1681553695.5,286047000.3,N
1681553715.4,286047002.7,N
1681553735.2,286047003.8,N
1681553755.1,286047003.2,N
1681553756.0,286047003.2,N
1681553775.8,286047005.5,N
1681553795.6,286047005.4,N
1681553815.5,286047008.9,Y
1681553835.3,286047009.2,P
1681553855.1,286047008.8,N
1681553875.9,286047010.3,P
1681553895.7,286047010.7,Y
1681553915.6,286047004.3,P
1681553935.4,286047005.9,P
1681553955.2,286047003.1,N
1681553975.1,286047001.7,N
1681553976.0,286047001.7,N
1681553995.8,286047004.8,N
1681554015.6,286047005.0,N
1681554035.5,286047005.3,N
1681554055.3,286047005.9,Y
1681554075.2,286046999.9,P
1681554095.9,286047004.2,N
1681554115.7,286047000.5,N
1681554135.6,286047002.4,N
1681554155.4,286047001.6,N
1681554175.2,286047002.3,N
1681554195.1,286047002.7,N
1681554196.0,286047002.7,N
1681554215.8,286046998.9,N
1681554235.7,286046998.6,N
1681554255.5,286046999.6,N
1681554275.3,286046999.4,N
1681554295.2,286046999.4,N
1681554315.0,286046995.0,N
1681554315.9,286046995.0,N
1681554335.7,286046998.1,N
1681554355.6,286046996.9,N
1681554375.4,286046997.8,N
1681554395.3,286046996.9,N
1681554415.1,286046997.5,N
1681554416.0,286046997.5,N
1681554435.8,286046993.3,N
1681554455.7,286046993.0,N
1681554475.5,286046992.1,N
1681554495.4,286046991.7,N
1681554515.2,286046994.2,N
1681554535.0,286046994.1,N
1681554535.9,286046994.1,N
1681554555.8,286046993.4,N
1681554575.6,286046990.8,N
1681554595.4,286046990.2,N
1681554615.3,286046992.7,N
1681554635.1,286046994.3,N
1681554655.9,286046994.5,N
1681554675.7,286046993.6,N
1681554695.5,286046994.0,N
1681554715.4,286046994.4,N
1681554735.2,286046995.9,N
1681554755.0,286046993.5,N
1681554755.9,286046993.5,N
1681554775.8,286046994.1,N
1681554795.6,286046992.9,Y
1681554815.5,286046998.3,P
1681554835.3,286046996.2,N
1681554855.1,286046995.9,N
1681554875.9,286046999.0,N
1681554895.7,286046997.4,N
1681554915.5,286046997.9,N
1681554935.4,286046996.6,N
1681554955.2,286046997.8,N
1681554975.0,286046997.4,N
1681554976.0,286046997.4,N
1681554995.8,286046997.2,N
1681555015.6,286046994.2,Y
1681555035.5,286046997.4,P
1681555055.3,286046996.1,P
1681555075.1,286046995.7,P
1681555095.9,286046993.8,Y
1681555115.7,286046998.1,P
1681555135.6,286047000.0,N
1681555155.4,286046996.8,N
1681555175.2,286046997.7,N
1681555195.1,286046998.9,N
1681555196.0,286046998.9,N
1681555215.8,286046996.0,Y
1681555235.6,286046999.0,P
1681555255.5,286046998.7,P
1681555275.3,286046998.5,P
1681555295.1,286046999.5,N
1681555315.9,286046998.2,Y
1681555335.7,286046999.0,P
1681555355.6,286046999.6,P
1681555375.4,286046997.2,P
1681555395.2,286046993.7,Y
1681555415.1,286046999.1,P
1681555416.0,286046999.1,P
1681555435.8,286046996.7,P
1681555455.7,286046995.6,Y
1681555475.5,286046999.5,P
1681555495.3,286046997.0,P
1681555515.2,286046999.6,N
1681555535.9,286046995.4,Y
1681555555.7,286046996.5,P
1681555575.6,286046993.6,P
1681555595.4,286046990.8,P
1681555615.2,286046992.1,N
1681555635.1,286046990.2,Y
1681555636.0,286046990.2,P
1681555655.8,286046998.0,N
1681555675.7,286046996.8,N
1681555695.5,286046993.0,N
1681555715.3,286046993.6,N
1681555735.2,286046996.3,N
1681555755.0,286046994.1,N
1681555755.9,286046994.1,N
1681555775.8,286046994.6,N
1681555795.6,286046994.4,N
1681555815.4,286046995.2,N
1681555835.3,286046994.3,Y
1681555855.1,286047001.1,P
1681555875.8,286046998.9,N
1681555895.7,286046996.5,N
1681555915.5,286046997.0,N
1681555935.4,286046997.3,N
1681555955.2,286046995.8,N
1681555975.0,286046996.0,N
1681555975.9,286046996.0,N
1681555995.8,286046996.0,N
1681556015.6,286046995.2,N
1681556035.4,286046991.7,Y
1681556055.3,286046996.0,P
1681556075.1,286046997.4,P
1681556095.8,286046996.9,P
1681556115.7,286046997.8,Y
1681556135.5,286047000.5,P
1681556155.4,286046998.6,N
1681556175.2,286046995.3,P
1681556195.0,286046993.5,Y
1681556195.9,286046993.5,P
1681556215.8,286046998.8,N
1681556235.6,286047003.8,N
1681556255.4,286047000.8,N
1681556275.3,286046998.1,N
1681556295.1,286047002.3,N
1681556315.9,286046999.8,N
1681556335.7,286046999.2,N
1681556355.5,286046998.4,N
1681556375.4,286046997.0,N
1681556395.2,286046998.6,N
